NSS-10

Last updated on Sun Apr 27 2025 00:02:38 GMT+0000 (Coordinated Universal Time)

1 28526U 05003A 25116.16574483 -.00000245 00000+0 00000+0 0 9994 2 28526 5.4058 75.4772 0003003 316.4537 204.7043 1.00271421 74137
UTC large
Height (km)
Speed (km/s)
/
Latitude / Longitude
Inclination (degrees)
Orbital Period (minutes)
Azimuth
Elevation
Range (km)
Doppler Factor

Next 0 passes for location: London (51.5072 / 0.1276)

Sorry there are no passes over London.